Location: La Brionne
(46.1728°N, 1.7849°E)
Time: 21:05:24
(UTC+00:00)

GEOS 3 Rocket - Pass Details

Date: 16 June 2021
Orbit: 780 x 839 km, 115.0° (Epoch: 02 August)

Event Time Altitude Azimuth Distance (km) Brightness Sun altitude
Exits shadow 22:36:02 30° 143° (SE) 1,452 4.4 -18.3°
Maximum altitude 22:38:46 87° 231° (SW) 846 3.6 -18.4°
Drops below altitude 10° 22:44:09 10° 321° (NW) 2,452 7.1 -18.7°
Sets 22:46:27 0° 322° (NW) 3,384 8.1 -18.8°
